Flag for U.S.A. Weather past 2 weeks in Urbana, Illinois, U.S.A.

Now
79 °F

Sunny.


Feels Like: 80 °F
Forecast: 60 / 80 °F
Wind: No wind

Location: University Of Illinois-Willard Airport

Current Time: Jul 4, 2015 at 4:51:21 PM

Latest Report: Jul 4, 2015 at 3:53 PM


Visibility: 10 mi

Pressure: 30.00 "Hg

Humidity: 50%

Dew point: 59 °F

Location of UrbanaLocation

Historic Weather in Urbana — Graph

°F

Urbana temperature yesterday

Maximum temperature yesterday: 76 °F (at 1:53 PM)
Minimum temperature yesterday: 60 °F (at 11:53 PM)
Average temperature yesterday: 69 °F

Past Weeks' High & Low Weather Summary

 TemperatureHumidityPressure
High86 °F (Jun 22, 2:53 PM)97% (Jun 29, 12:53 AM)30.23 "Hg (Jun 29, 12:53 AM)
Low56 °F (Jun 28, 2:53 AM)45% (Jun 27, 2:53 PM)29.73 "Hg (Jun 29, 4:53 AM)
Average71 °F81%29.93 "Hg
* Reported Jun 19 2:53 PM — Jul 4 2:53 PM, Urbana, Weather by CustomWeather, © 2015

Note: Actual official high and low records may vary slightly from our data, if they occured in-between our weather recording intervals... More about our weather records

Advertising

Urbana weather history for previous 24 hours

 ConditionsComfort  
Time TempWeatherWind HumidityBarometerVisibility
2:53 PM
Sat, Jul 4
79 °FSunny.3 mph50%30.01 "Hg10 mi
1:53 PM77 °FPartly sunny.5 mph56%30.02 "Hg10 mi
12:53 PM77 °FPartly sunny.3 mph56%30.03 "Hg10 mi
11:53 AM77 °FPassing clouds.No wind54%30.03 "Hg10 mi
10:53 AM76 °FSunny.3 mph60%30.03 "Hg10 mi
9:53 AM73 °FSunny.No wind69%30.03 "Hg10 mi
8:53 AM70 °FSunny.No wind81%30.01 "Hg8 mi
7:53 AM67 °FFog.No wind87%30.00 "Hg6 mi
6:53 AM61 °FFog.No wind93%29.98 "Hg4 mi
5:53 AM59 °FFog.No wind93%29.97 "Hg4 mi
4:53 AM57 °FFog.3 mph93%29.95 "Hg5 mi
3:53 AM57 °FFog.3 mph93%29.95 "Hg4 mi
2:53 AM59 °FFog.No wind90%29.95 "Hg5 mi
1:53 AM60 °FFog.3 mph93%29.96 "Hg6 mi
12:53 AM60 °FFog.3 mph93%29.96 "Hg6 mi
11:53 PM
Fri, Jul 3
60 °FClear.No wind93%29.94 "Hg7 mi
10:53 PM62 °FClear.No wind90%29.94 "Hg8 mi
9:53 PM63 °FClear.No wind90%29.93 "Hg9 mi
8:53 PM65 °FSunny.No wind91%29.91 "Hg9 mi
7:53 PM71 °FSunny.3 mph73%29.90 "Hg10 mi
6:53 PM74 °FSunny.7 mph67%29.89 "Hg10 mi
5:53 PM76 °FPassing clouds.8 mph62%29.89 "Hg10 mi
4:53 PM76 °FSunny.7 mph67%29.90 "Hg10 mi
Weather by CustomWeather, © 2015

See weather overviewHow to use our weather pages